Regional Weather Roundup
Issued by NWS

Home | Current Version | Previous Version | Text Only | Print | Product List | Glossary On
Versions: 1 2 3 4 5 6 7 8 9 10 11 12 13 14 15 16 17 18 19 20 21 22 23 24 25 26 27 28 29 30 31 32 33 34 35 36 37 38 39 40 41 42 43 44 45 46 47 48 49 50
000
ASUS43 KTOP 241208
RWRKS

WEATHER ROUNDUP FOR KANSAS
NATIONAL WEATHER SERVICE GOODLAND KS
700 AM CDT WED AUG 24 2016

NOTE:  "FAIR" INDICATES FEW OR NO CLOUDS BELOW 12,000 FEET WITH NO
SIGNIFICANT WEATHER AND/OR OBSTRUCTIONS TO VISIBILITY.

KSZ001>006-013>018-027>032-041>047-241300-
NORTHWEST KANSAS

CITY           SKY/WX    TMP DP  RH WIND       PRES   REMARKS
GOODLAND       MOCLDY    62  47  57 NE5       30.08R
6HR MIN TEMP:  58; 6HR MAX TEMP:  65; 6HR PCP: TRACE;

HAYS           MOCLDY    70  54  56 NW8       29.96R
HILL CITY      CLOUDY    66  53  63 N12       29.99R
6HR MIN TEMP:  63; 6HR MAX TEMP:  74;

RUSSELL        CLOUDY    68  64  87 W7        29.92R
6HR MIN TEMP:  67; 6HR MAX TEMP:  77;

$$

KSZ061>065-074>080-084>089-241300-
SOUTHWEST KANSAS

CITY           SKY/WX    TMP DP  RH WIND       PRES   REMARKS
DODGE CITY     CLOUDY    73  62  68 SW6       29.97S
6HR MIN TEMP:  71; 6HR MAX TEMP:  77;

ELKHART          N/A     66  50  56 SW6         N/A
GARDEN CITY    CLOUDY    68  62  81 NW3       29.97S
6HR MIN TEMP:  66; 6HR MAX TEMP:  75; 6HR PCP: TRACE;

GREAT BEND     CLOUDY    73  61  64 S6        29.94S
LIBERAL        CLOUDY    68  61  77 S23G29    30.03R
PRATT          CLOUDY    71  59  65 S10       30.00R
6HR MIN TEMP:  70; 6HR MAX TEMP:  75;

$$

KSZ066>073-081>083-090>101-241300-
SOUTHEAST KANSAS

CITY           SKY/WX    TMP DP  RH WIND       PRES   REMARKS
CHANUTE        LGT RAIN  77  70  79 S12       29.99R
6HR MIN TEMP:  77; 6HR MAX TEMP:  79; 6HR PCP: TRACE;

COFFEYVILLE    CLOUDY    78  71  79 S10       30.01R
6HR MIN TEMP:  78; 6HR MAX TEMP:  81;

HUTCHINSON     MOCLDY    73  65  75 S9        29.96S
6HR MIN TEMP:  72; 6HR MAX TEMP:  80;

MEDICINE LODGE   N/A     71  65  81 SW25G47   29.98R
NEWTON         CLOUDY    75  68  78 S14       29.97R
PARSONS        PTCLDY    77  70  79 S7        30.01S
6HR MIN TEMP:  77; 6HR MAX TEMP:  80; 6HR PCP: TRACE;

WICHITA INTL   MOCLDY    74  68  81 S7        29.97R
6HR MIN TEMP:  74; 6HR MAX TEMP:  79;

WICHITA JABRA  CLOUDY    75  68  78 S10       29.98R
6HR MIN TEMP:  75; 6HR MAX TEMP:  80;

WICHITA MCCONL CLOUDY    74  67  80 SW9       29.97R
WINFIELD       CLOUDY    77  68  73 S9        29.99R
6HR MIN TEMP:  77; 6HR MAX TEMP:  81;

$$

KSZ007>012-019>026-033>040-048>060-102>105-241300-
NORTHEAST KANSAS

CITY           SKY/WX    TMP DP  RH WIND       PRES   REMARKS
CONCORDIA      PTCLDY    69  65  86 SE3       29.90S
6HR MIN TEMP:  69; 6HR MAX TEMP:  77;

EMPORIA        CLOUDY    74  70  87 S7        29.97R
6HR MIN TEMP:  73; 6HR MAX TEMP:  77;

LAWRENCE       PTCLDY    68  66  93 SE9       29.96F
6HR MIN TEMP:  67; 6HR MAX TEMP:  79; 6HR PCP: TRACE;

MANHATTAN      CLOUDY    70  66  87 SE6       29.92F
6HR MIN TEMP:  69; 6HR MAX TEMP:  76;

MARYSVILLE     MOCLDY    64  63  94 N5        29.92R
OLATHE IND     PTCLDY    69  66  90 SE10      29.99F
6HR MIN TEMP:  69; 6HR MAX TEMP:  78; 6HR PCP:  0.16;

OLATHE EXE     CLOUDY    68  66  93 SE8       30.00F
6HR MIN TEMP:  68; 6HR MAX TEMP:  77; 6HR PCP:  0.09;

SALINA         CLOUDY    78  65  63 S14       29.90S
6HR MIN TEMP:  72; 6HR MAX TEMP:  83;

TOPEKA BILLARD PTCLDY    70  66  87 SE9       29.94F
6HR MIN TEMP:  69; 6HR MAX TEMP:  76;

TOPEKA FORBES  PTCLDY    71  66  84 SE10      29.95F
6HR MIN TEMP:  71; 6HR MAX TEMP:  81;

$$




USA.gov is the U.S. government's official web portal to all federal, state and local government web resources and services.